Waarnemingen

Advertentie
Mijn weer
Grenoble/St.Geoirs, Frankrijk (7486): temperatuur & dauwpunt: 12.12.2017 15:00:00 - 18.12.2017 15:00:00 (CET)Grenoble/St.Geoirs, Frankrijk (7486): temperatuur 5cm: 12.12.2017 15:00:00 - 18.12.2017 15:00:00 (CET)Grenoble/St.Geoirs, Frankrijk (7486): temperatuur -20cm & temperatuur -100cm: 12.12.2017 15:00:00 - 18.12.2017 15:00:00 (CET)Grenoble/St.Geoirs, Frankrijk (7486): windsnelheid & windstoten: 12.12.2017 15:00:00 - 18.12.2017 15:00:00 (CET)Grenoble/St.Geoirs, Frankrijk (7486): windrichting: 12.12.2017 15:00:00 - 18.12.2017 15:00:00 (CET)Grenoble/St.Geoirs, Frankrijk (7486): luchtdruk: 12.12.2017 15:00:00 - 18.12.2017 15:00:00 (CET)Grenoble/St.Geoirs, Frankrijk (7486): zicht: 12.12.2017 15:00:00 - 18.12.2017 15:00:00 (CET)Grenoble/St.Geoirs, Frankrijk (7486): Zonneschijnduur: 12.12.2017 15:00:00 - 18.12.2017 15:00:00 (CET)Grenoble/St.Geoirs, Frankrijk (7486): neerslag: 12.12.2017 15:00:00 - 18.12.2017 15:00:00 (CET)
Datum & Tijd tt [°C] td [°C] tt 5cm [°C] tt -20cm [°C] tt -100cm [°C] ff [km/u] ff [kn] fx [km/u] fx [kn] dd ppp [hPa] vv [km] sd [min] rr [mm]
18.12.2017 15:00:00 0,3 -0,6 0,4 4,4 7,8 8 4 16 9 ONO 1023,5 11 0 0,0
18.12.2017 14:00:00 0,2 -0,7 0,3 4,4 7,8 9 5 18 10 O 1023,6 3,8 0 0,2
18.12.2017 13:00:00 0,1 -0,8 0,1 4,5 7,8 11 6 22 12 O 1024,0 4,3 0 0,4
18.12.2017 12:00:00 0,0 -0,9 0,0 4,5 7,8 14 8 21 12 O 1024,4 3,8 0 1,0
18.12.2017 11:00:00 -0,2 -1,0 -0,3 4,5 7,8 16 9 23 12 ONO 1025,0 3,4 0 0,8
18.12.2017 10:00:00 -0,6 -1,4 -0,8 4,5 7,8 16 9 22 12 O 1025,3 2,6 0 0,2
18.12.2017 09:00:00 -1,0 -1,8 -1,3 4,6 7,8 13 7 21 11 ONO 1026,4 4,9 0 0,4
18.12.2017 08:00:00 -1,3 -2,3 -1,3 4,6 7,8 13 7 24 13 O 1027,3 2,4 0 0,4
18.12.2017 07:00:00 -1,0 -2,4 -1,1 4,7 7,8 21 11 25 13 O 1027,7 8 0 0,0
18.12.2017 06:00:00 -0,6 -2,0 -1,1 4,7 7,8 15 8 20 11 O 1029,0 13 0 0,0
18.12.2017 05:00:00 -0,8 -1,9 -2,1 4,8 7,8 13 7 18 10 O 1029,7 10 0 0,0
18.12.2017 04:00:00 -1,9 -2,9 -2,8 4,8 7,8 8 4 10 5 O 1030,5 8 0 0,0
18.12.2017 03:00:00 -1,9 -2,7 -4,9 4,9 7,9 5 3 11 6 - 1031,2 10 0 0,0
18.12.2017 02:00:00 -1,5 -2,5 -5,9 4,9 7,9 8 4 10 5 N 1030,9 10 0 0,0
18.12.2017 01:00:00 -1,4 -2,7 -4,2 4,9 7,9 5 3 10 5 N 1031,5 12 0 0,0
18.12.2017 00:00:00 -0,3 -2,2 -3,6 5,0 7,9 4 2 13 7 - 1031,7 10 0 0,0
17.12.2017 23:00:00 0,7 -1,4 -0,1 5,0 7,8 11 6 16 8 N 1031,2 32 0 0,0
17.12.2017 22:00:00 0,6 -1,5 -0,7 5,0 7,9 9 5 19 10 N 1031,0 36 0 0,0
17.12.2017 21:00:00 0,4 -1,4 -1,9 5,0 7,9 8 4 16 9 ONO 1030,7 10 0 0,0
17.12.2017 20:00:00 0,4 -1,8 -1,6 5,0 7,9 6 3 18 10 ONO 1030,3 41 0 0,0
17.12.2017 19:00:00 1,1 -0,8 0,4 5,0 7,9 11 6 24 13 N 1030,0 10 0 0,0
17.12.2017 18:00:00 1,5 -0,9 1,0 5,0 7,9 15 8 22 12 NNO 1029,5 10 0 0,0
17.12.2017 17:00:00 1,8 -0,6 1,5 4,9 7,9 4 2 12 7 - 1028,8 10 0 0,0
17.12.2017 16:00:00 2,1 -0,5 2,3 4,9 7,9 8 4 13 7 NNO 1027,9 10 0 0,0
17.12.2017 15:00:00 2,2 -0,7 2,8 4,9 7,9 4 2 11 6 - 1027,5 10 0 0,0
17.12.2017 14:00:00 2,0 -0,4 2,2 4,9 7,9 5 3 10 6 - 1027,3 10 0 0,0
17.12.2017 13:00:00 1,8 0,3 2,3 4,9 7,9 9 5 16 8 W 1027,6 10 0 0,0
17.12.2017 12:00:00 2,2 -0,1 1,8 4,9 7,9 0 0 8 4 N 1027,6 19 0 0,0
17.12.2017 11:00:00 1,3 -0,6 1,0 5,0 7,9 2 1 6 4 - 1027,9 10 0 0,2
17.12.2017 10:00:00 0,9 -1,5 1,2 5,0 7,9 0 0 5 3 N 1027,4 11 9 0,0
17.12.2017 09:00:00 0,9 -1,2 -1,0 5,0 7,9 3 2 13 7 ZZO 1026,6 20 21 0,0
17.12.2017 08:00:00 0,2 -1,6 -1,1 5,1 7,9 4 2 13 7 ZO 1026,4 10 0 0,0
17.12.2017 07:00:00 0,5 -1,1 0,0 5,1 7,9 9 5 18 10 N 1026,1 10 0 0,4
17.12.2017 06:00:00 0,9 -1,0 0,3 5,1 7,9 11 6 18 10 N 1026,1 5 0 0,0
17.12.2017 05:00:00 1,2 -0,9 -0,6 5,2 7,9 0 0 14 8 N 1025,8 10 0 0,0
17.12.2017 04:00:00 0,9 -1,7 -0,5 5,2 7,9 3 1 26 14 Z 1025,3 45 0 0,0
17.12.2017 03:00:00 1,1 -1,5 0,0 5,2 7,9 9 5 21 11 N 1025,0 44 0 0,0
17.12.2017 02:00:00 1,3 -1,3 0,4 5,3 7,9 5 3 25 13 - 1024,6 10 0 0,0
17.12.2017 01:00:00 1,6 -0,3 0,8 5,3 7,9 9 5 27 15 N 1024,4 36 0 0,0
17.12.2017 00:00:00 1,5 -0,4 0,5 5,4 7,9 16 8 36 19 N 1023,8 40 0 0,0
16.12.2017 23:00:00 1,5 -0,4 0,5 5,4 7,9 22 12 41 22 N 1023,4 45 0 0,0
16.12.2017 22:00:00 1,4 -0,1 0,7 5,4 7,9 26 14 39 21 N 1022,9 10 0 0,6
16.12.2017 21:00:00 2,0 0,4 1,4 5,4 7,9 16 9 34 18 N 1022,4 20 0 0,0
16.12.2017 20:00:00 2,1 0,6 1,5 5,4 7,9 14 8 22 12 NNW 1021,8 26 0 0,0
16.12.2017 19:00:00 1,9 0,3 1,4 5,4 7,9 7 4 14 8 WNW 1021,0 17 0 0,0
16.12.2017 18:00:00 2,3 -0,1 1,5 5,4 7,9 3 2 18 10 W 1019,9 31 0 0,0
16.12.2017 17:00:00 2,8 -0,7 2,3 5,3 7,9 9 5 21 11 NNW 1019,0 40 0 0,0
16.12.2017 16:00:00 3,4 -0,4 3,1 5,4 7,9 5 3 13 7 NNO 1018,3 43 0 0,0
16.12.2017 15:00:00 3,5 0,4 2,8 5,4 7,9 8 5 25 13 NO 1017,3 43 0 0,0
16.12.2017 14:00:00 2,7 0,3 2,5 5,4 7,9 11 6 29 16 NNO 1017,2 43 0 0,0
16.12.2017 13:00:00 3,1 0,3 3,1 5,4 7,9 16 9 30 16 N 1017,0 10 0 0,0
16.12.2017 12:00:00 3,0 0,7 2,6 5,4 7,9 13 7 21 11 N 1016,4 40 0 0,0
16.12.2017 11:00:00 2,3 0,8 2,5 5,4 7,9 7 4 13 7 NW 1016,1 9 0 0,2
16.12.2017 10:00:00 2,5 0,7 1,8 5,4 7,9 8 5 18 10 NW 1014,9 20 0 0,2
16.12.2017 09:00:00 2,1 0,2 1,2 5,5 7,9 3 2 11 6 N 1013,7 57 0 0,0
16.12.2017 08:00:00 2,1 0,3 1,2 5,5 7,9 8 5 21 11 NW 1012,6 12 0 0,0
16.12.2017 07:00:00 1,7 -0,1 0,7 5,5 7,9 5 3 16 8 NW 1011,6 10 0 0,4
16.12.2017 06:00:00 2,1 -1,0 0,6 5,5 7,9 5 3 12 6 WNW 1010,6 10 0 0,0
16.12.2017 05:00:00 2,0 -0,9 0,9 5,6 7,9 5 3 14 8 - 1010,1 10 0 0,0
16.12.2017 04:00:00 2,0 0,5 1,5 5,6 7,9 11 6 21 11 WNW 1009,5 20 0 0,4
16.12.2017 03:00:00 2,5 0,7 1,9 5,6 7,9 16 9 24 13 W 1008,3 44 0 0,0
16.12.2017 02:00:00 2,7 1,1 2,1 5,6 7,9 11 6 34 18 WZW 1007,5 36 0 0,0
16.12.2017 01:00:00 3,0 0,9 2,2 5,7 7,9 21 11 40 21 W 1006,9 10 0 0,2
16.12.2017 00:00:00 2,4 1,4 0,6 5,7 7,9 5 3 16 9 ZZO 1006,6 18 0 0,2
15.12.2017 23:00:00 2,4 1,1 1,4 5,7 7,9 2 1 10 5 - 1006,1 10 0 0,6
15.12.2017 22:00:00 2,5 1,2 1,5 5,7 7,9 7 4 10 5 OZO 1005,4 60 0 0,2
15.12.2017 21:00:00 3,3 1,0 2,4 5,7 7,9 5 3 24 13 WZW 1005,0 3,1 0 1,6
15.12.2017 20:00:00 4,6 0,5 2,8 5,7 7,9 15 8 26 14 ZW 1004,0 10 0 0,2
15.12.2017 19:00:00 3,7 1,2 3,1 5,7 7,9 10 5 17 9 O 1003,2 28 0 0,0
15.12.2017 18:00:00 3,8 1,0 0,5 5,6 7,9 12 7 16 9 ONO 1003,4 49 0 0,0
15.12.2017 17:00:00 4,4 -0,6 0,2 5,5 7,8 6 3 13 7 OZO 1003,5 60 12 0,0
15.12.2017 16:00:00 7,3 -0,9 7,2 5,4 7,8 7 4 12 6 ZO 1003,1 60 49 0,0
15.12.2017 15:00:00 8,4 0,1 9,8 5,4 7,9 4 2 13 7 Z 1003,3 46 43 0,0
15.12.2017 14:00:00 8,1 0,1 8,7 5,4 7,9 5 3 11 6 OZO 1003,6 8 52 0,0
15.12.2017 13:00:00 7,4 2,1 10,2 5,4 7,9 9 5 17 9 O 1004,6 53 60 0,0
15.12.2017 12:00:00 6,2 3,4 5,0 5,4 7,8 11 6 19 10 O 1005,3 50 39 0,0
15.12.2017 11:00:00 4,0 2,7 2,9 5,5 7,9 11 6 18 10 O 1006,6 37 11 0,0
15.12.2017 10:00:00 3,0 1,8 1,6 5,5 7,9 11 6 17 9 O 1006,6 28 6 0,0
15.12.2017 09:00:00 2,2 1,3 1,2 5,5 7,9 5 3 21 12 ONO 1005,7 26 0 0,0
15.12.2017 08:00:00 2,8 1,6 2,2 5,5 7,9 13 7 18 10 ONO 1005,6 10 0 0,4
15.12.2017 07:00:00 3,0 1,4 2,3 5,6 7,9 12 7 22 12 O 1005,3 20 0 0,0
15.12.2017 06:00:00 2,4 1,4 1,4 5,6 7,9 16 9 23 12 O 1005,4 60 0 0,0
15.12.2017 05:00:00 1,9 0,9 1,6 5,6 7,9 17 9 25 13 ONO 1005,9 60 0 0,0
15.12.2017 04:00:00 3,1 2,1 2,4 5,6 7,9 15 8 21 11 OZO 1005,7 10 0 1,2
15.12.2017 03:00:00 2,7 1,7 1,5 5,5 7,9 8 4 64 34 ZZW 1006,5 10 0 -
15.12.2017 02:00:00 3,4 0,4 2,4 5,5 7,9 35 19 79 43 NNW 1005,3 10 0 0,8
15.12.2017 01:00:00 9,5 3,7 7,6 5,5 7,9 31 17 55 30 ZZW 1002,8 10 0 0,0
15.12.2017 00:00:00 8,9 4,1 7,5 5,5 7,9 28 15 57 31 ZZW 1003,0 10 0 0,0
14.12.2017 23:00:00 10,0 2,3 9,4 5,4 7,9 26 14 50 27 ZZW 1003,2 10 0 0,0
14.12.2017 22:00:00 10,2 1,3 9,3 5,4 7,9 35 19 54 29 Z 1003,3 60 0 0,0
14.12.2017 21:00:00 9,9 1,8 8,6 5,4 7,9 31 17 56 30 ZZW 1004,5 53 0 0,0
14.12.2017 20:00:00 9,6 2,7 8,6 5,3 7,9 29 16 61 33 ZZW 1005,0 53 0 0,0
14.12.2017 19:00:00 9,5 2,8 8,4 5,2 7,9 21 11 36 20 ZZW 1005,5 56 0 0,0
14.12.2017 18:00:00 9,4 1,8 8,2 5,2 7,9 21 12 41 22 ZZW 1005,8 60 0 0,0
14.12.2017 17:00:00 9,9 2,0 9,1 5,1 7,9 29 16 54 29 Z 1005,7 60 21 0,0
14.12.2017 16:00:00 9,9 3,0 9,2 5,0 7,9 29 16 48 26 ZZW 1006,7 10 0 0,0
14.12.2017 15:00:00 9,4 5,2 9,2 5,0 7,9 22 12 40 22 ZZW 1007,4 58 0 0,0
14.12.2017 14:00:00 9,9 5,1 10,1 4,9 7,9 26 14 45 25 Z 1008,3 10 6 0,0
14.12.2017 13:00:00 10,1 5,1 9,8 4,8 7,9 24 13 42 23 ZZW 1009,3 56 11 0,0
14.12.2017 12:00:00 9,2 5,4 9,6 4,8 7,9 22 12 36 19 ZZW 1010,7 56 17 0,0
14.12.2017 11:00:00 8,4 4,6 7,7 4,8 7,9 5 3 18 10 - 1011,5 10 18 0,0
14.12.2017 10:00:00 7,4 4,5 6,0 4,8 7,9 6 3 13 7 NW 1012,0 40 31 0,0
14.12.2017 09:00:00 5,3 3,9 2,1 4,7 7,9 5 3 18 10 - 1012,3 10 3 0,0
14.12.2017 08:00:00 4,2 2,9 2,0 4,7 7,9 4 2 13 7 O 1013,1 10 0 0,0
14.12.2017 07:00:00 4,9 3,1 4,1 4,7 8,0 10 5 22 12 ONO 1012,2 22 0 0,0
14.12.2017 06:00:00 7,2 3,2 5,5 4,6 8,0 5 3 14 8 - 1012,0 10 0 0,0
14.12.2017 05:00:00 7,0 3,2 6,2 4,6 8,0 5 3 16 9 - 1012,4 10 0 0,0
14.12.2017 04:00:00 7,3 3,5 6,3 4,6 8,0 10 5 24 13 Z 1011,8 55 0 0,0
14.12.2017 03:00:00 7,4 3,4 6,5 4,5 8,0 5 3 38 20 Z 1012,1 10 0 0,0
14.12.2017 02:00:00 7,4 3,4 6,3 4,5 8,0 16 9 44 24 Z 1012,2 60 0 0,0
14.12.2017 01:00:00 6,9 3,0 6,2 4,5 8,0 29 16 60 33 Z 1012,3 60 0 0,0
14.12.2017 00:00:00 6,8 2,5 5,8 4,4 8,0 31 17 53 29 Z 1012,3 10 0 0,0
13.12.2017 23:00:00 6,2 2,1 4,6 4,4 8,0 24 13 46 25 Z 1012,7 60 0 0,0
13.12.2017 22:00:00 5,3 1,9 3,5 4,4 8,0 17 9 44 24 Z 1013,2 60 0 0,0
13.12.2017 21:00:00 4,6 1,6 3,1 4,4 8,0 16 9 32 17 Z 1013,7 10 0 0,6
13.12.2017 20:00:00 4,1 1,1 2,0 4,4 8,0 19 11 36 19 Z 1014,3 10 0 0,8
13.12.2017 19:00:00 2,6 0,5 2,0 4,4 8,0 7 4 11 6 NO 1015,9 28 0 0,0
13.12.2017 18:00:00 2,5 0,1 1,9 4,4 8,0 8 4 17 9 ONO 1016,6 10 0 0,0
13.12.2017 17:00:00 2,8 0,5 1,9 4,4 8,0 4 2 16 9 - 1017,5 10 0 0,0
13.12.2017 16:00:00 3,4 -0,4 2,4 4,4 8,0 5 3 15 8 ONO 1018,0 10 0 0,2
13.12.2017 15:00:00 4,5 -1,3 4,0 4,4 8,0 8 4 11 6 WNW 1017,9 10 0 0,0
13.12.2017 14:00:00 5,1 -1,6 5,6 4,5 8,0 3 2 16 8 ZW 1017,7 59 14 0,0
13.12.2017 13:00:00 4,0 -0,2 4,1 4,5 8,0 18 10 23 12 O 1018,2 14 44 0,0
13.12.2017 12:00:00 2,6 -0,7 3,1 4,6 8,0 12 6 19 11 O 1019,8 29 39 0,0
13.12.2017 11:00:00 1,6 -1,0 1,4 4,6 8,0 14 8 22 12 O 1020,7 33 46 0,0
13.12.2017 10:00:00 0,6 -0,7 -2,5 4,7 8,0 14 8 19 10 O 1021,6 13 60 0,0
13.12.2017 09:00:00 -2,6 -3,2 -6,7 4,8 8,0 0 0 0 0 N 1022,2 9 24 0,0
13.12.2017 08:00:00 -3,5 -4,0 -6,0 4,9 8,0 0 0 0 0 N 1022,4 9 0 0,0
13.12.2017 07:00:00 -4,5 -5,3 -7,3 4,9 8,0 0 0 0 0 N 1023,0 10 0 0,0
13.12.2017 06:00:00 -5,0 -5,8 -8,7 5,0 8,0 0 0 0 0 N 1023,5 9 0 0,0
13.12.2017 05:00:00 -2,3 -3,4 -5,8 5,1 8,0 0 0 0 0 N 1022,9 10 0 0,0
13.12.2017 04:00:00 -1,6 -2,4 -5,4 5,2 8,0 0 0 0 0 N 1022,6 10 0 0,0
13.12.2017 03:00:00 -4,4 -5,4 -6,8 5,2 8,0 0 0 0 0 N 1023,6 12 0 0,0
13.12.2017 02:00:00 -4,0 -4,7 -8,3 5,3 8,0 0 0 0 0 N 1023,7 6 0 0,0
13.12.2017 01:00:00 -4,7 -5,5 -9,2 5,4 8,0 0 0 10 6 N 1023,6 7 0 0,0
13.12.2017 00:00:00 -2,8 -3,5 -7,8 5,5 8,0 6 4 13 7 OZO 1023,0 7 0 0,0
12.12.2017 23:00:00 -1,6 -1,9 -5,6 5,5 8,0 11 6 15 8 O 1022,1 10 0 0,0
12.12.2017 22:00:00 -3,6 -4,6 -7,1 5,6 8,0 11 6 13 7 O 1022,5 7 0 0,0
12.12.2017 21:00:00 -2,5 -3,3 -6,3 5,6 8,0 4 2 9 5 OZO 1022,1 6 0 0,0
12.12.2017 20:00:00 -2,2 -2,8 -6,3 5,6 8,0 8 4 10 5 O 1021,3 4,8 0 0,0
12.12.2017 19:00:00 -0,7 -2,0 -5,6 5,7 8,0 2 1 6 3 NNO 1020,6 4,2 0 0,0
12.12.2017 18:00:00 0,6 -0,4 -3,9 5,6 8,0 0 0 10 6 N 1019,5 10 0 0,0
12.12.2017 17:00:00 1,9 -0,4 0,3 5,6 8,0 10 5 12 7 O 1018,4 17 19 0,0
12.12.2017 16:00:00 4,1 0,8 4,4 5,6 8,0 2 1 10 5 ONO 1017,6 41 0 0,0
12.12.2017 15:00:00 3,9 1,4 4,4 5,5 8,0 3 1 7 4 ONO 1016,7 52 0 0,0

tt = temperatuur
td = dauwpunt
tt 5cm = temperatuur 5cm
tt -20cm = temperatuur -20cm
tt -100cm = temperatuur -100cm
ff = windsnelheid
fx = windstoten
dd = windrichting
ppp = luchtdruk
vv = zicht
sd = Zonneschijnduur
rr = neerslag

Weerstations in de omgeving